Home   Weather   Pullman   Past weeks

Flag for USA Past Weather in Pullman, Washington, USA — Yesterday and Last 2 Weeks

Now
35 °F

Sunny.


Feels Like: 24 °F
Forecast: 29 / 35 °F
Wind: 21 mph from East

Location: Pullman / Moscow Regional Airport

Current Time: Jan 22, 2017 at 10:12:57 am

Latest Report: Jan 22, 2017 at 8:53 am


Visibility: 10 mi

Pressure: 29.68 "Hg (27.16 "Hg at 715m altitude)

Humidity: 75%

Dew Point: 28 °F

Location of PullmanLocation

Past Weather in Pullman — Graph

°F

Pullman Temperature Yesterday

Maximum temperature yesterday: 38 °F (at 12:53 pm)
Minimum temperature yesterday: 34 °F (at 2:53 am)
Average temperature yesterday: 36 °F

High & Low Weather Summary for the Past Weeks

 TemperatureHumidityPressure
High40 °F (Jan 20, 1:53 pm)100% (Jan 8, 10:25 pm)30.71 "Hg (Jan 8, 10:25 pm)
Low-5 °F (Jan 14, 8:01 am)58% (Jan 17, 4:53 pm)29.24 "Hg (Jan 20, 6:53 pm)
Average20 °F85%29.99 "Hg
* Reported Jan 7 8:53 am — Jan 22 8:53 am, Pullman, Weather by CustomWeather, © 2017

Note: Actual official high and low records may vary slightly from our data, if they occured in-between our weather recording intervals... More about our weather records

Advertising

Pullman Weather History for the Previous 24 Hours

Scroll right to see more
 ConditionsComfort  
Time TempWeatherWind HumidityBarometerVisibility
8:53 am
Sun, Jan 22
35 °FSunny.21 mph75%29.68 "Hg10 mi
7:53 am34 °FSunny.21 mph79%29.68 "Hg10 mi
6:53 am34 °FPassing clouds.21 mph82%29.70 "Hg10 mi
5:53 am35 °FClear.20 mph78%29.71 "Hg10 mi
4:53 am34 °FClear.17 mph85%29.73 "Hg10 mi
3:53 am34 °FPassing clouds.13 mph88%29.77 "Hg10 mi
2:53 am34 °FOvercast.13 mph88%29.79 "Hg10 mi
1:53 am34 °FPartly cloudy.12 mph88%29.79 "Hg10 mi
12:53 am35 °FMostly cloudy.9 mph85%29.78 "Hg10 mi
11:53 pm
Sat, Jan 21
35 °FOvercast.7 mph88%29.78 "Hg10 mi
10:53 pm35 °FOvercast.9 mph88%29.77 "Hg10 mi
10:25 pm35 °FOvercast.10 mph88%29.71 "Hg10 mi
10:06 pm36 °FLight rain. Fog.12 mph85%29.70 "Hg5 mi
9:53 pm36 °FOvercast.9 mph82%29.75 "Hg10 mi
8:53 pm37 °FOvercast.8 mph76%29.73 "Hg10 mi
7:53 pm38 °FLight rain. Mostly cloudy.6 mph76%29.72 "Hg10 mi
6:53 pm37 °FMostly cloudy.8 mph76%29.70 "Hg10 mi
5:53 pm37 °FMostly cloudy.9 mph73%29.67 "Hg10 mi
4:53 pm37 °FOvercast.9 mph76%29.65 "Hg10 mi
3:53 pm37 °FOvercast.8 mph76%29.62 "Hg10 mi
2:53 pm38 °FSunny.8 mph73%29.61 "Hg10 mi
1:53 pm38 °FSunny.7 mph76%29.57 "Hg10 mi
12:53 pm38 °FSunny.12 mph76%29.54 "Hg10 mi
11:53 am37 °FOvercast.10 mph76%29.53 "Hg10 mi
10:53 am36 °FOvercast.8 mph79%29.52 "Hg10 mi
Weather by CustomWeather, © 2017

See weather overviewHow to use our weather pages